Weather History for Jackson, WY

Change the Weather History Date:

Tuesday, July 30, 2013

  Actual Average Record
Temperature  
Mean Temperature 60 °F -  
Max Temperature 78 °F 79 °F 127 °F (1996)
Min Temperature 42 °F 41 °F 36 °F (1966)
Degree Days  
Heating Degree Days 5    
Growing Degree Days 10 (Base 50)    
Moisture  
Dew Point 45 °F    
Average Humidity 70    
Maximum Humidity 100    
Minimum Humidity 24    
Precipitation  
Precipitation 0.00 in - - ()
Sea Level Pressure  
Sea Level Pressure 30.30 in    
Wind  
Wind Speed 6 mph (NNE)    
Max Wind Speed 29 mph    
Max Gust Speed 34 mph    
Visibility 10 miles    
Events      
Averages and records for this station are not official NWS values.
T = Trace of Precipitation, MM = Missing Value Source: NWS Daily Summary

Daily Weather History Graph

Daily Weather History Graph

Search for Another Location

Airport:

Trip Planner

Search our weather history database for the weather conditions in past years. The results will help you decide how hot, cold, wet, or windy it might be!

Date:

Astronomy

Jul. 30, 2013 Rise Set
Actual Time 6:10 AM MDT 8:47 PM MDT
Civil Twilight 5:37 AM MDT 9:20 PM MDT
Nautical Twilight 4:56 AM MDT 10:01 PM MDT
Astronomical Twilight 4:09 AM MDT 10:48 PM MDT
Moon 12:32 AM MDT (7/30) 3:10 PM MDT (7/30)
Length of Visible Light 15h 42m
Length of Day
14h 37m
Last Quarter, 40% of the Moon is Illuminated
Jul 30
Last Quarter
Aug 6
New
Aug 14
First Quarter
Aug 20
Full
Aug 28
Last Quarter

Hourly Weather History & Observations

Time (MDT) Temp. Windchill Dew Point Humidity Pressure Visibility Wind Dir Wind Speed Gust Speed Precip Events Conditions
12:15 AM 51.8 °F - 48.2 °F 88% 30.26 in 10.0 mi East 5.8 mph - N/A   Clear
12:35 AM 51.8 °F - 48.2 °F 88% 30.26 in 10.0 mi ESE 4.6 mph - N/A   Clear
12:55 AM 51.8 °F - 48.2 °F 88% 30.27 in 10.0 mi Calm Calm - N/A   Scattered Clouds
1:15 AM 51.8 °F - 48.2 °F 88% 30.27 in 10.0 mi ESE 5.8 mph - N/A   Partly Cloudy
1:35 AM 50.0 °F - 48.2 °F 94% 30.28 in 10.0 mi ESE 4.6 mph - N/A   Clear
3:15 AM 46.4 °F 45.2 °F 44.6 °F 93% 30.28 in 10.0 mi North 3.5 mph - N/A   Clear
3:35 AM 44.6 °F 42.2 °F 44.6 °F 100% 30.29 in 10.0 mi North 4.6 mph - N/A   Clear
3:55 AM 44.6 °F - 42.8 °F 93% 30.29 in 10.0 mi Calm Calm - N/A   Clear
4:15 AM 44.6 °F 40.2 °F 42.8 °F 93% 30.29 in 10.0 mi North 8.1 mph - N/A   Clear
4:35 AM 44.6 °F 40.2 °F 42.8 °F 93% 30.29 in 10.0 mi North 8.1 mph - N/A   Clear
4:55 AM 44.6 °F 43.1 °F 44.6 °F 100% 30.30 in 10.0 mi North 3.5 mph - N/A   Clear
5:15 AM 44.6 °F - 44.6 °F 100% 30.30 in 10.0 mi Calm Calm - N/A   Clear
5:35 AM 44.6 °F 42.2 °F 44.6 °F 100% 30.30 in 10.0 mi NNE 4.6 mph - N/A   Scattered Clouds
5:55 AM 42.8 °F 41.1 °F 41.0 °F 93% 30.31 in 10.0 mi NNE 3.5 mph - N/A   Partly Cloudy
6:16 AM 42.8 °F 40.1 °F 42.8 °F 100% 30.31 in 10.0 mi NNW 4.6 mph - N/A   Clear
6:35 AM 42.8 °F 41.1 °F 42.8 °F 100% 30.32 in 10.0 mi NNE 3.5 mph - N/A   Clear
6:51 AM 42.8 °F - 41.0 °F 93% 30.32 in 10.0 mi Calm Calm - N/A   Clear
7:51 AM 48.2 °F - 46.4 °F 93% 30.33 in 10.0 mi Calm Calm - N/A   Clear
8:53 AM 53.6 °F - 48.2 °F 82% 30.33 in 10.0 mi North 3.5 mph - N/A   Clear
9:52 AM 59.0 °F - 48.2 °F 67% 30.33 in 10.0 mi Calm Calm - N/A   Clear
10:54 AM 64.4 °F - 50.0 °F 59% 30.32 in 10.0 mi Calm Calm - N/A   Clear
11:53 AM 69.8 °F - 51.8 °F 53% 30.32 in 10.0 mi SW 3.5 mph - N/A   Clear
12:52 PM 75.2 °F - 46.4 °F 36% 30.30 in 10.0 mi South 4.6 mph - N/A   Clear
1:51 PM 73.4 °F - 44.6 °F 36% 30.29 in 10.0 mi SSW 15.0 mph 21.9 mph N/A   Mostly Cloudy
2:51 PM 75.2 °F - 44.6 °F 34% 30.28 in 10.0 mi South 8.1 mph 17.3 mph N/A   Scattered Clouds
3:51 PM 78.8 °F - 39.2 °F 24% 30.25 in 10.0 mi SW 17.3 mph 23.0 mph N/A   Scattered Clouds
4:56 PM 73.4 °F - 39.2 °F 29% 30.28 in 10.0 mi South 28.8 mph 34.5 mph N/A   Scattered Clouds
5:54 PM 75.2 °F - 37.4 °F 25% 30.27 in 10.0 mi South 18.4 mph 28.8 mph N/A   Partly Cloudy
6:51 PM 75.2 °F - 42.8 °F 31% 30.27 in 10.0 mi South 11.5 mph 17.3 mph N/A   Clear
7:51 PM 66.2 °F - 44.6 °F 46% 30.28 in 10.0 mi WSW 10.4 mph - N/A   Clear
8:51 PM 62.6 °F - 44.6 °F 52% 30.29 in 10.0 mi SW 8.1 mph - N/A   Clear
9:15 PM 60.8 °F - 44.6 °F 55% 30.31 in 10.0 mi WSW 8.1 mph - N/A   Clear
9:35 PM 62.6 °F - 44.6 °F 52% 30.32 in 10.0 mi WSW 9.2 mph - N/A   Clear
10:15 PM 62.6 °F - 44.6 °F 52% 30.34 in 10.0 mi North 15.0 mph 20.7 mph N/A   Clear
10:35 PM 60.8 °F - 44.6 °F 55% 30.35 in 10.0 mi North 9.2 mph - N/A   Mostly Cloudy
11:15 PM 59.0 °F - 44.6 °F 59% 30.35 in 10.0 mi NNE 5.8 mph - N/A   Clear
11:35 PM 57.2 °F - 44.6 °F 63% 30.36 in 10.0 mi Calm Calm - N/A   Clear
11:55 PM 57.2 °F - 44.6 °F 63% 30.36 in 10.0 mi NNE 4.6 mph - N/A   Clear